Zurück zum Katalog

STARLINK-34612

AktivKommunikationVLEO
NORAD 64773·PAYLOAD·🇺🇸 United States

Gestartet Jul 8, 2025 von Cape Canaveral Space Force Station

Loading…

Nächste Überflüge (nächste 24 Stunden)

TLE

AktuellSource: CelesTrak SupGP

Epoche: Sep 14, 2026, 21:28 UTC

1 64773C 25147U   26257.89493056 -.00001173  00000+0 -34663-4 0  2578
2 64773  53.1579  79.7067 0001183  86.1068 114.8003 15.34381698    13

Verfolge STARLINK-34612 in Echtzeit mit AllMySat

Download on the App Store